Location: Cazavet
(43.0017°N, 1.0431°E)
Time: 22:47:43
(UTC+00:00)

Meteor 2-19 Rocket - Pass Details

Date: 18 January 2026
Orbit: 935 x 959 km, 82.5° (Epoch: 13 February)

Event Time Altitude Azimuth Distance (km) Brightness Sun altitude
Rises 05:57:16 0° 352° (N) 3,608 7.3 -15.4°
Reaches altitude 10° 05:59:46 10° 353° (N) 2,658 6.6 -15.0°
Maximum altitude 06:05:51 83° 81° (E) 947 4.5 -13.9°
Drops below altitude 10° 06:11:53 10° 171° (S) 2,637 7.1 -12.8°
Sets 06:14:21 0° 172° (S) 3,578 7.8 -12.4°
